This is the latest recevied weather packets stored in our database for station/object KI4NG. If no packets are shown the sender has not sent any weather packets the latest 10 day(s).
| Time | Temp. | Humidity | Pressure | Rain* | Wind** | Luminosity | Snow |
|---|---|---|---|---|---|---|---|
| 1777985309 | 16.67° C | 69% | 1014.8 hPa | 0 mm | - | 250 W/m² | - |
| 1777985006 | 16.11° C | 73% | 1014.8 hPa | 0 mm | - | 219 W/m² | - |
| 1777984702 | 15.56° C | 74% | 1014.6 hPa | 0 mm | - | 189 W/m² | - |
| 1777984399 | 15.56° C | 76% | 1014.5 hPa | 0 mm | - | 171 W/m² | - |
| 1777984095 | 15° C | 74% | 1014.7 hPa | 0 mm | - | 168 W/m² | - |
| 1777983793 | 15° C | 76% | 1014.6 hPa | 0 mm | - | 136 W/m² | - |
| 1777983489 | 14.44° C | 76% | 1014.6 hPa | 0 mm | - | 121 W/m² | - |
| 1777983186 | 13.89° C | 76% | 1014.4 hPa | 0 mm | - | 107 W/m² | - |
| 1777982882 | 13.89° C | 79% | 1014.4 hPa | 0 mm | - | 94 W/m² | - |
| 1777982579 | 13.33° C | 79% | 1014.5 hPa | 0 mm | - | 80 W/m² | - |
| 1777982277 | 13.33° C | 77% | 1014.4 hPa | 0 mm | - | 71 W/m² | - |
| 1777981975 | 12.78° C | 80% | 1014 hPa | 0 mm | - | 67 W/m² | - |
| 1777981672 | 12.78° C | 79% | 1014.3 hPa | 0 mm | - | 58 W/m² | - |
| 1777981368 | 12.78° C | 79% | 1014.1 hPa | 0 mm | - | 53 W/m² | - |
| 1777981065 | 12.78° C | 78% | 1014 hPa | 0 mm | - | 48 W/m² | - |
| 1777980761 | 12.78° C | 77% | 1014 hPa | 0 mm | - | 44 W/m² | - |
| 1777980457 | 13.33° C | 75% | 1014 hPa | 0 mm | - | 39 W/m² | - |
| 1777980155 | 12.78° C | 77% | 1014 hPa | 0 mm | - | 35 W/m² | - |
| 1777979855 | 13.33° C | 75% | 1014 hPa | 0 mm | - | 30 W/m² | - |
| 1777979551 | 13.89° C | 72% | 1013.9 hPa | 0 mm | - | 24 W/m² | - |
| 1777979247 | 13.89° C | 70% | 1013.8 hPa | 0 mm | - | 21 W/m² | - |
| 1777978945 | 13.89° C | 74% | 1014 hPa | 0 mm | - | 16 W/m² | - |
| 1777978641 | 14.44° C | 69% | 1013.9 hPa | 0 mm | - | 12 W/m² | - |
| 1777978337 | 14.44° C | 68% | 1013.8 hPa | 0 mm | - | 6 W/m² | - |
| 1777978034 | 13.89° C | 69% | 1013.7 hPa | 0 mm | - | 3 W/m² | - |
* Rain latest hour (hover to see other rain measurements)
** Current wind speed in m/s (hover to see current wind gust speed)